TimeCDT,TemperatureF,Dew PointF,Humidity,Sea Level PressureIn,VisibilityMPH,Wind Direction,Wind SpeedMPH,Gust SpeedMPH,PrecipitationIn,Events,Conditions,WindDirDegrees,DateUTC
12:15 AM,28.9,25.5,87,30.41,10.0,WSW,4.6,-,N/A,,Clear,250,2013-10-25 05:15:00
12:35 AM,30.6,25.5,82,30.41,10.0,West,3.5,-,N/A,,Clear,260,2013-10-25 05:35:00
12:55 AM,31.3,25.7,80,30.41,10.0,West,4.6,-,N/A,,Clear,260,2013-10-25 05:55:00
1:15 AM,31.5,25.7,79,30.41,10.0,West,4.6,-,N/A,,Clear,260,2013-10-25 06:15:00
1:35 AM,32.0,26.1,79,30.42,10.0,West,3.5,-,N/A,,Clear,270,2013-10-25 06:35:00
1:55 AM,30.4,25.7,83,30.43,10.0,West,3.5,-,N/A,,Clear,270,2013-10-25 06:55:00
2:15 AM,30.4,25.5,82,30.43,10.0,West,3.5,-,N/A,,Clear,280,2013-10-25 07:15:00
2:35 AM,29.8,25.3,83,30.43,10.0,West,3.5,-,N/A,,Clear,280,2013-10-25 07:35:00
2:55 AM,30.2,25.7,83,30.43,10.0,West,4.6,-,N/A,,Clear,270,2013-10-25 07:55:00
3:15 AM,30.0,25.7,84,30.44,10.0,West,3.5,-,N/A,,Clear,280,2013-10-25 08:15:00
3:35 AM,29.7,25.5,85,30.44,10.0,West,4.6,-,N/A,,Clear,280,2013-10-25 08:35:00
3:55 AM,30.9,26.2,83,30.44,10.0,West,4.6,-,N/A,,Clear,270,2013-10-25 08:55:00
4:15 AM,31.5,26.4,82,30.44,10.0,West,4.6,-,N/A,,Clear,270,2013-10-25 09:15:00
4:35 AM,31.6,26.6,82,30.44,10.0,West,3.5,-,N/A,,Clear,270,2013-10-25 09:35:00
4:55 AM,30.0,25.7,84,30.45,10.0,West,4.6,-,N/A,,Clear,260,2013-10-25 09:55:00
5:15 AM,29.8,26.1,86,30.46,10.0,West,3.5,-,N/A,,Clear,260,2013-10-25 10:15:00
5:35 AM,30.4,26.1,84,30.46,10.0,West,6.9,-,N/A,,Clear,260,2013-10-25 10:35:00
5:55 AM,31.6,26.6,82,30.46,10.0,West,4.6,-,N/A,,Clear,260,2013-10-25 10:55:00
6:15 AM,31.6,26.6,82,30.46,10.0,West,4.6,-,N/A,,Clear,260,2013-10-25 11:15:00
6:35 AM,30.0,26.4,86,30.47,10.0,Calm,Calm,-,N/A,,Clear,0,2013-10-25 11:35:00
6:55 AM,30.6,26.4,85,30.47,10.0,WSW,3.5,-,N/A,,Clear,250,2013-10-25 11:55:00
7:15 AM,30.7,26.6,85,30.47,10.0,Calm,Calm,-,N/A,,Clear,0,2013-10-25 12:15:00
7:35 AM,30.4,26.6,86,30.47,10.0,Calm,Calm,-,N/A,,Clear,0,2013-10-25 12:35:00
7:55 AM,31.1,27.1,85,30.47,10.0,WSW,3.5,-,N/A,,Clear,240,2013-10-25 12:55:00
8:15 AM,32.0,28.0,85,30.48,10.0,WSW,3.5,-,N/A,,Clear,250,2013-10-25 13:15:00
8:35 AM,34.2,29.3,82,30.48,10.0,WSW,4.6,-,N/A,,Clear,240,2013-10-25 13:35:00
8:55 AM,36.5,30.6,79,30.48,10.0,WSW,5.8,-,N/A,,Clear,250,2013-10-25 13:55:00
9:15 AM,38.3,30.6,74,30.49,10.0,West,6.9,-,N/A,,Clear,260,2013-10-25 14:15:00
9:35 AM,39.7,30.6,70,30.49,10.0,West,6.9,-,N/A,,Clear,260,2013-10-25 14:35:00
9:55 AM,41.5,31.3,67,30.49,10.0,WSW,5.8,-,N/A,,Clear,250,2013-10-25 14:55:00
10:15 AM,43.3,30.9,62,30.49,10.0,West,5.8,-,N/A,,Clear,260,2013-10-25 15:15:00
10:35 AM,45.0,31.3,59,30.48,10.0,West,4.6,-,N/A,,Clear,270,2013-10-25 15:35:00
10:55 AM,46.6,31.1,55,30.48,10.0,WSW,5.8,-,N/A,,Clear,240,2013-10-25 15:55:00
11:15 AM,47.7,29.1,49,30.48,10.0,West,6.9,-,N/A,,Clear,270,2013-10-25 16:15:00
11:35 AM,49.1,28.9,46,30.47,10.0,West,6.9,-,N/A,,Clear,270,2013-10-25 16:35:00
11:55 AM,50.2,28.9,44,30.46,10.0,WNW,5.8,-,N/A,,Clear,290,2013-10-25 16:55:00
12:15 PM,50.5,27.5,41,30.45,10.0,SW,6.9,-,N/A,,Clear,220,2013-10-25 17:15:00
12:35 PM,51.4,28.0,40,30.44,10.0,SSW,5.8,-,N/A,,Clear,200,2013-10-25 17:35:00
12:55 PM,52.2,27.7,39,30.43,10.0,WSW,8.1,-,N/A,,Clear,250,2013-10-25 17:55:00
1:15 PM,52.0,27.1,38,30.41,10.0,WSW,4.6,-,N/A,,Clear,240,2013-10-25 18:15:00
1:35 PM,52.3,26.1,36,30.40,10.0,WSW,8.1,16.1,N/A,,Clear,240,2013-10-25 18:35:00
1:55 PM,53.1,25.5,34,30.39,10.0,SW,5.8,-,N/A,,Clear,230,2013-10-25 18:55:00
2:15 PM,53.6,26.1,35,30.38,10.0,South,8.1,16.1,N/A,,Clear,190,2013-10-25 19:15:00
2:35 PM,54.0,26.6,35,30.37,10.0,SSW,10.4,-,N/A,,Clear,200,2013-10-25 19:35:00
2:55 PM,54.5,26.6,34,30.36,10.0,SW,9.2,-,N/A,,Clear,220,2013-10-25 19:55:00
3:15 PM,54.1,25.5,33,30.35,10.0,SW,10.4,-,N/A,,Clear,230,2013-10-25 20:15:00
3:35 PM,54.1,24.8,32,30.34,10.0,SSW,9.2,17.3,N/A,,Clear,210,2013-10-25 20:35:00
3:55 PM,54.5,24.8,32,30.33,10.0,SSW,15.0,-,N/A,,Clear,210,2013-10-25 20:55:00
4:15 PM,54.1,24.4,32,30.32,10.0,SSW,11.5,18.4,N/A,,Clear,200,2013-10-25 21:15:00
4:35 PM,54.0,24.4,32,30.31,10.0,SW,13.8,17.3,N/A,,Clear,220,2013-10-25 21:35:00
4:55 PM,53.6,24.4,32,30.30,10.0,SW,10.4,16.1,N/A,,Clear,220,2013-10-25 21:55:00
5:15 PM,52.7,23.2,32,30.29,10.0,SW,9.2,18.4,N/A,,Clear,220,2013-10-25 22:15:00
5:35 PM,52.0,23.5,33,30.29,10.0,SSW,5.8,-,N/A,,Clear,210,2013-10-25 22:35:00
5:55 PM,50.2,24.1,36,30.28,10.0,SSW,5.8,-,N/A,,Clear,200,2013-10-25 22:55:00
6:15 PM,48.4,24.6,39,30.28,10.0,South,5.8,-,N/A,,Clear,190,2013-10-25 23:15:00
6:35 PM,46.9,24.8,42,30.27,10.0,South,5.8,-,N/A,,Clear,190,2013-10-25 23:35:00
6:55 PM,45.5,25.5,46,30.27,10.0,South,4.6,-,N/A,,Clear,180,2013-10-25 23:55:00
7:15 PM,42.4,25.7,52,30.26,10.0,South,5.8,-,N/A,,Clear,170,2013-10-26 00:15:00
7:35 PM,41.4,26.1,55,30.26,10.0,South,4.6,-,N/A,,Clear,180,2013-10-26 00:35:00
7:55 PM,41.0,25.9,55,30.25,10.0,South,3.5,-,N/A,,Clear,180,2013-10-26 00:55:00
8:15 PM,40.8,25.7,55,30.25,10.0,South,4.6,-,N/A,,Clear,180,2013-10-26 01:15:00
8:35 PM,39.7,26.2,59,30.24,10.0,South,4.6,-,N/A,,Clear,180,2013-10-26 01:35:00
8:55 PM,39.0,26.4,61,30.24,10.0,South,4.6,-,N/A,,Clear,180,2013-10-26 01:55:00
9:15 PM,39.0,26.6,61,30.23,10.0,South,5.8,-,N/A,,Clear,180,2013-10-26 02:15:00
9:35 PM,40.5,27.0,59,30.21,10.0,South,6.9,-,N/A,,Clear,180,2013-10-26 02:35:00
9:55 PM,41.4,26.6,56,30.21,10.0,South,8.1,-,N/A,,Clear,190,2013-10-26 02:55:00
10:15 PM,41.9,27.0,55,30.21,10.0,South,8.1,-,N/A,,Clear,190,2013-10-26 03:15:00
10:35 PM,42.1,26.6,54,30.20,10.0,South,6.9,-,N/A,,Clear,190,2013-10-26 03:35:00
10:55 PM,41.5,27.0,56,30.20,10.0,South,5.8,-,N/A,,Clear,190,2013-10-26 03:55:00
11:15 PM,40.5,26.6,58,30.19,10.0,South,5.8,-,N/A,,Clear,180,2013-10-26 04:15:00
11:35 PM,39.2,26.6,61,30.19,10.0,South,4.6,-,N/A,,Clear,170,2013-10-26 04:35:00
11:55 PM,37.6,27.0,66,30.18,10.0,South,4.6,-,N/A,,Clear,180,2013-10-26 04:55:00